Location: Ferchesar
(52.6477°N, 12.4298°E)
Time: 09:54:56
(UTC+01:00)

Tiros 1 despin weight - Pass Details

Date: 15 December 2021
Orbit: 592 x 641 km, 48.2° (Epoch: 19 January)

Event Time Altitude Azimuth Distance (km) Brightness Sun altitude
Rises 09:13:08 0° 218° (SW) 2,875 ? 5.3°
Reaches altitude 10° 09:15:47 10° 205° (SSW) 1,963 ? 5.6°
Maximum altitude 09:19:22 24° 152° (SSE) 1,279 ? 5.9°
Drops below altitude 10° 09:22:56 10° 99° (E) 1,946 ? 6.2°
Sets 09:25:33 0° 85° (E) 2,843 ? 6.5°
